Simultaneous Nadir Overpasses (SNOs) Predictions

Prediction of SNOs between LANDSAT-8 and NOAA-19 Satellite Orbit:

Table of predicted SNOs for the next 14.0 days since TLE Epoch: 5/4/2024
Index Date (LANDSAT-8) Time (LANDSAT-8) Lat,Lon (LANDSAT-8) SZA (LANDSAT-8 ) Date (NOAA-19) Time (NOAA-19) Lat,Lon (NOAA-19) SZA (NOAA-19 ) Distance(km) Time Diff (sec)
1 05/04/2024 05:45:57 -80.71, -52.53 113.71 05/04/2024 05:45:31 -80.72, -52.47 113.70 1.45 26
2 05/04/2024 06:35:22 80.75, 115.51 66.35 05/04/2024 06:36:25 80.75, 115.44 66.37 1.28 63
3 05/06/2024 12:09:07 -80.71,-148.37 114.35 05/06/2024 12:08:31 -80.71,-148.45 114.37 1.35 36
4 05/06/2024 12:58:32 80.74, 19.65 65.71 05/06/2024 12:59:24 80.74, 19.64 65.73 0.25 52
5 05/08/2024 18:32:17 -80.70, 115.71 114.98 05/08/2024 18:31:30 -80.71, 115.86 114.97 2.98 47
6 05/08/2024 19:21:42 80.73, -76.29 65.08 05/08/2024 19:22:23 80.74, -76.23 65.11 1.31 41
7 05/11/2024 00:55:26 -80.71, 20.04 115.54 05/11/2024 00:54:29 -80.71, 20.09 115.56 0.93 57
8 05/11/2024 01:44:51 80.74,-171.98 64.51 05/11/2024 01:45:22 80.73,-172.14 64.50 3.33 31
9 05/13/2024 07:18:36 -80.69, -76.04 116.15 05/13/2024 07:17:29 -80.69, -76.11 116.18 1.27 67
10 05/13/2024 08:08:01 80.72, 91.93 63.90 05/13/2024 08:08:21 80.72, 91.88 63.90 0.79 20
11 05/15/2024 14:31:10 80.71, -3.91 63.35 05/15/2024 14:31:19 80.72, -3.78 63.38 2.45 9



Historial Predications of SNOs between LANDSAT-8 and NOAA-19
